{"data":{"norad_id":41752,"intl_designator":"2016-054A","name":"INSAT-3DR","alt_names":[],"object_type":"PAYLOAD","status":"ACTIVE","operator":null,"country":"IND","launch_date":"2016-09-08","launch_site_code":"SRILR","launch_vehicle":null,"mission":null,"orbit_class":"UNKNOWN","rcs_meters":8.2903,"size_class":null,"mass_kg":null,"dimensions":null,"purposes":["comms","earth_obs"],"wikipedia_slug":null,"has_3d_model":false,"image_url":null,"decayed_at":null,"tle_current":{"epoch":"2026-09-20T00:09:54.927936Z","epoch_age_seconds":57012,"freshness":"FRESH","line1":"1 41752U 16054A   26263.00688574 -.00000082  00000+0  00000+0 0  9991","line2":"2 41752   0.0458  95.6769 0011662 168.5843 171.1498  1.00272413 36764","mean_motion":1.00272413,"eccentricity":0.0011662,"inclination_deg":0.0458,"raan_deg":95.6769,"arg_perigee_deg":168.5843,"mean_anomaly_deg":171.1498,"bstar":0,"rev_number":3676,"period_min":1436.0879098422,"perigee_km":35737.246605809,"apogee_km":35835.591216016,"semimajor_km":42164.555910912,"source":"CELESTRAK","updated_at":"2026-09-20T09:00:35.247900Z"}}}